GW2569 Weather Reports


Display with metric or nautical units.
time (UTC)temp
F
wind
direction
speed
MPH
gust
MPH
rain 1hr
in
rain 24hr
in
rain mn
in
humidity
%
barometer
mb
20260507163537 91 153 3.0 10.0 0.00 0.00 0.00 78 1011.1
20260507163051 91 108 3.0 10.0 0.00 0.00 0.00 79 1011.2
20260507162538 91 120 4.0 10.0 0.00 0.00 0.00 78 1011.2
20260507162043 90 98 5.0 10.0 0.00 0.00 0.00 80 1011.2
20260507161603 90 109 3.0 10.0 0.00 0.00 0.00 80 1011.2
20260507161040 90 36 2.0 7.0 0.00 0.00 0.00 81 1011.2
20260507160540 90 89 3.0 10.0 0.00 0.00 0.00 81 1011.3
20260507160050 89 190 3.0 10.0 0.00 0.00 0.00 81 1011.4
20260507155540 89 122 3.0 10.0 0.00 0.00 0.00 81 1011.3
20260507155040 89 98 3.0 9.0 0.00 0.00 0.00 82 1011.3
20260507154549 88 96 4.0 9.0 0.00 0.00 0.00 82 1011.3
20260507154037 88 120 3.0 9.0 0.00 0.00 0.00 82 1011.3
20260507153540 88 76 4.0 9.0 0.00 0.00 0.00 82 1011.4
20260507153059 88 193 3.0 10.0 0.00 0.00 0.00 82 1011.4
20260507152542 87 125 4.0 10.0 0.00 0.00 0.00 83 1011.5
20260507152040 87 98 4.0 10.0 0.00 0.00 0.00 83 1011.5
20260507151551 87 67 4.0 10.0 0.00 0.00 0.00 83 1011.6
20260507151040 87 88 4.0 9.0 0.00 0.00 0.00 83 1011.5
20260507150541 86 111 2.0 11.0 0.00 0.00 0.00 84 1011.6
20260507150055 85 144 4.0 11.0 0.00 0.00 0.00 84 1011.5
20260507145540 85 101 6.0 11.0 0.00 0.00 0.00 84 1011.5
20260507145043 85 109 5.0 9.0 0.00 0.00 0.00 85 1011.6
20260507144551 85 130 3.0 10.0 0.00 0.00 0.00 85 1011.5
20260507144043 85 96 5.0 10.0 0.00 0.00 0.00 85 1011.6
20260507143540 84 87 5.0 10.0 0.00 0.00 0.00 85 1011.6
20260507143049 84 98 6.0 10.0 0.00 0.00 0.00 85 1011.5
20260507142540 84 121 5.0 9.0 0.00 0.00 0.00 85 1011.4
20260507142040 84 98 4.0 11.0 0.00 0.00 0.00 85 1011.4
20260507141612 83 115 4.0 11.0 0.00 0.00 0.00 86 1011.4
20260507141042 83 105 4.0 11.0 0.00 0.00 0.00 87 1011.4
20260507140540 82 98 6.0 11.0 0.00 0.00 0.00 87 1011.4
20260507140056 82 156 5.0 9.0 0.00 0.00 0.00 87 1011.4
20260507135539 82 108 4.0 9.0 0.00 0.00 0.00 87 1011.3
20260507135039 82 71 5.0 9.0 0.00 0.00 0.00 87 1011.3
20260507134559 82 129 5.0 9.0 0.00 0.00 0.00 87 1011.4
20260507134040 82 112 5.0 9.0 0.00 0.00 0.00 87 1011.4
20260507133540 81 106 5.0 10.0 0.00 0.00 0.00 87 1011.3
20260507133101 81 100 6.0 10.0 0.00 0.00 0.00 88 1011.2
20260507132541 81 74 5.0 10.0 0.00 0.00 0.00 88 1011.1
20260507132040 81 103 5.0 10.0 0.00 0.00 0.00 88 1011.2
20260507131550 81 96 3.0 10.0 0.00 0.00 0.00 88 1011.1
20260507131043 80 119 5.0 10.0 0.00 0.00 0.00 88 1011.1
20260507130540 80 74 5.0 11.0 0.00 0.00 0.00 88 1011.1
20260507130052 80 41 4.0 11.0 0.00 0.00 0.00 88 1011.1
20260507125540 80 68 4.0 9.0 0.00 0.00 0.00 89 1011.1
20260507125040 80 101 5.0 10.0 0.00 0.00 0.00 89 1010.9
20260507124553 80 65 5.0 10.0 0.00 0.00 0.00 89 1010.8
20260507124042 80 94 4.0 9.0 0.00 0.00 0.00 88 1010.8
20260507123540 80 97 4.0 9.0 0.00 0.00 0.00 88 1010.7
20260507123054 80 82 5.0 9.0 0.00 0.00 0.00 88 1010.6
20260507122539 80 83 3.0 9.0 0.00 0.00 0.00 88 1010.6
20260507122041 80 101 3.0 10.0 0.00 0.00 0.00 88 1010.6
20260507121552 80 80 4.0 10.0 0.00 0.00 0.00 88 1010.4
20260507121041 80 63 4.0 9.0 0.00 0.00 0.00 88 1010.4
20260507120541 80 78 3.0 9.0 0.00 0.00 0.00 88 1010.3
20260507115541 80 111 4.0 10.0 0.00 0.00 0.00 88 1010.3
20260507115043 80 94 4.0 10.0 0.00 0.00 0.00 87 1010.2
20260507114558 80 92 4.0 8.0 0.00 0.00 0.00 87 1010.1
20260507114040 81 91 4.0 8.0 0.00 0.00 0.00 87 1010.1
20260507113540 81 81 2.0 6.0 0.00 0.00 0.00 86 1010.1
20260507113051 81 82 1.0 7.0 0.00 0.00 0.00 86 1010.1
20260507112540 81 108 2.0 7.0 0.00 0.00 0.00 86 1010.0
20260507112040 81 68 3.0 7.0 0.00 0.00 0.00 85 1010.0
20260507111550 81 78 1.0 8.0 0.00 0.00 0.00 85 1010.0
20260507111040 81 142 3.0 8.0 0.00 0.00 0.00 85 1010.0
20260507110540 81 5 2.0 8.0 0.00 0.00 0.00 85 1010.0
20260507110059 82 40 3.0 8.0 0.00 0.00 0.00 85 1010.0
20260507105540 82 105 3.0 8.0 0.00 0.00 0.00 84 1009.8
20260507105041 82 39 2.0 8.0 0.00 0.00 0.00 84 1009.7
20260507104548 82 107 3.0 8.0 0.00 0.00 0.00 84 1009.6
20260507104040 82 75 2.0 8.0 0.00 0.00 0.00 84 1009.7
20260507103541 82 67 4.0 8.0 0.00 0.00 0.00 83 1009.6
20260507103049 82 29 2.0 6.0 0.00 0.00 0.00 83 1009.6
20260507102539 83 72 2.0 7.0 0.00 0.00 0.00 83 1009.5
20260507102042 83 38 1.0 7.0 0.00 0.00 0.00 83 1009.5
20260507101557 83 101 3.0 7.0 0.00 0.00 0.00 83 1009.3
20260507101040 83 61 2.0 6.0 0.00 0.00 0.00 82 1009.3
20260507100542 83 43 2.0 6.0 0.00 0.00 0.00 82 1009.4
20260507100047 83 34 2.0 6.0 0.00 0.00 0.00 82 1009.2
20260507095540 83 50 2.0 7.0 0.00 0.00 0.00 82 1009.3
20260507095039 83 82 2.0 7.0 0.00 0.00 0.00 82 1009.3
20260507094553 83 56 3.0 6.0 0.00 0.00 0.00 82 1009.2
20260507094040 84 89 2.0 6.0 0.00 0.00 0.00 82 1009.2
20260507093540 84 65 2.0 7.0 0.00 0.00 0.00 82 1009.2
20260507093049 84 78 2.0 7.0 0.00 0.00 0.00 82 1009.2
20260507092541 84 53 3.0 6.0 0.00 0.00 0.00 82 1009.0
20260507092044 84 69 1.0 6.0 0.00 0.00 0.00 82 1009.1
20260507091548 84 0 1.0 6.0 0.00 0.00 0.00 83 1009.0
20260507091041 85 40 1.0 6.0 0.00 0.00 0.00 83 1009.0
20260507090541 85 73 2.0 8.0 0.00 0.00 0.00 82 1008.9
20260507090054 85 102 3.0 8.0 0.00 0.00 0.00 82 1008.9
20260507085541 85 51 3.0 8.0 0.00 0.00 0.00 82 1008.8
20260507085043 85 90 2.0 5.0 0.00 0.00 0.00 82 1008.8
20260507084548 85 85 2.0 5.0 0.00 0.00 0.00 82 1008.8
20260507084040 85 64 2.0 4.0 0.00 0.00 0.00 82 1008.7
20260507083540 85 59 2.0 5.0 0.00 0.00 0.00 82 1008.9
20260507083048 85 0 2.0 6.0 0.00 0.00 0.00 82 1008.8
20260507082540 85 117 3.0 9.0 0.00 0.00 0.00 82 1008.7
20260507082041 85 109 3.0 9.0 0.00 0.00 0.00 81 1008.8
20260507081550 86 90 3.0 9.0 0.00 0.00 0.00 81 1008.8
20260507081041 86 94 3.0 7.0 0.00 0.00 0.00 82 1008.9
20260507080540 86 102 2.0 8.0 0.00 0.00 0.00 81 1009.0
20260507080053 86 109 4.0 8.0 0.00 0.00 0.00 81 1009.0
20260507075538 86 92 3.0 8.0 0.00 0.00 0.00 81 1009.1
20260507075040 86 130 4.0 8.0 0.00 0.00 0.00 81 1009.2
20260507074551 86 103 3.0 10.0 0.00 0.00 0.00 81 1009.2
20260507074040 86 0 3.0 10.0 0.00 0.00 0.00 81 1009.1
20260507073540 86 87 6.0 11.0 0.00 0.00 0.00 80 1009.1
20260507073121 87 111 4.0 11.0 0.00 0.00 0.00 80 1009.2
20260507072540 87 98 4.0 10.0 0.00 0.00 0.00 80 1009.2
20260507072039 87 150 4.0 10.0 0.00 0.00 0.00 80 1009.2
20260507071549 87 87 2.0 9.0 0.00 0.00 0.00 80 1009.3
20260507071040 87 114 4.0 9.0 0.00 0.00 0.00 80 1009.3
20260507070540 87 119 4.0 7.0 0.00 0.00 0.00 80 1009.5
20260507070055 87 156 2.0 6.0 0.00 0.00 0.00 80 1009.5
20260507065540 87 177 0.0 6.0 0.00 0.00 0.00 79 1009.5
20260507065041 87 194 1.0 6.0 0.00 0.00 0.00 79 1009.5
20260507064608 87 238 2.0 6.0 0.00 0.00 0.00 79 1009.5
20260507064039 88 191 1.0 6.0 0.00 0.00 0.00 79 1009.6
20260507063543 88 171 1.0 6.0 0.00 0.00 0.00 79 1009.5
20260507063056 87 240 1.0 6.0 0.00 0.00 0.00 79 1009.6
20260507062540 87 207 1.0 6.0 0.00 0.00 0.00 79 1009.5
20260507062040 87 163 2.0 6.0 0.00 0.00 0.00 79 1009.4
20260507061546 87 210 2.0 4.0 0.00 0.00 0.00 79 1009.4
20260507061040 87 199 2.0 5.0 0.00 0.00 0.00 79 1009.4
20260507060540 87 144 2.0 5.0 0.00 0.00 0.00 79 1009.5
20260507060046 88 0 0.0 4.0 0.00 0.00 0.00 79 1009.5
20260507055539 88 126 1.0 5.0 0.00 0.00 0.00 78 1009.6
20260507055040 88 288 2.0 5.0 0.00 0.00 0.00 78 1009.5
20260507054546 88 180 0.0 4.0 0.00 0.00 0.00 78 1009.5
20260507054040 88 184 1.0 5.0 0.00 0.00 0.00 78 1009.4
20260507053538 88 110 0.0 5.0 0.00 0.00 0.00 78 1009.4
20260507053046 88 170 2.0 6.0 0.00 0.00 0.00 78 1009.4
20260507052540 88 0 2.0 6.0 0.00 0.00 0.00 77 1009.4
20260507052040 89 0 2.0 6.0 0.00 0.00 0.00 77 1009.5
20260507051549 89 145 1.0 5.0 0.00 0.00 0.00 77 1009.4
20260507051042 89 142 1.0 6.0 0.00 0.00 0.00 77 1009.4
20260507050540 88 144 2.0 6.0 0.00 0.00 0.00 78 1009.5
20260507050057 88 167 1.0 3.0 0.00 0.00 0.00 78 1009.4
20260507045540 88 0 1.0 4.0 0.00 0.00 0.00 78 1009.5
20260507045040 88 0 0.0 4.0 0.00 0.00 0.00 78 1009.4
20260507044547 88 0 1.0 4.0 0.00 0.00 0.00 78 1009.3
20260507044040 88 103 0.0 6.0 0.00 0.00 0.00 77 1009.2
20260507043540 88 104 1.0 6.0 0.00 0.00 0.00 77 1009.2
20260507043051 89 103 1.0 6.0 0.00 0.00 0.00 77 1009.2
20260507042539 89 180 2.0 7.0 0.00 0.00 0.00 77 1009.2
20260507042040 89 95 1.0 8.0 0.00 0.00 0.00 77 1009.1
20260507041548 89 119 2.0 8.0 0.00 0.00 0.00 77 1009.1
20260507041042 89 103 2.0 8.0 0.00 0.00 0.00 77 1009.1
20260507040540 89 119 2.0 7.0 0.00 0.00 0.00 76 1009.0
20260507040104 89 104 2.0 7.0 0.00 0.00 0.00 76 1008.9
20260507035540 89 110 2.0 7.0 0.00 0.00 0.00 76 1009.0
20260507035038 89 113 3.0 7.0 0.00 0.00 0.00 76 1008.9
20260507034605 90 94 3.0 8.0 0.00 0.00 0.00 75 1008.9
20260507034040 90 85 3.0 8.0 0.00 0.00 0.00 75 1008.9
20260507033540 90 90 3.0 7.0 0.00 0.00 0.00 75 1008.9
20260507033103 90 80 3.0 7.0 0.00 0.00 0.00 74 1008.9
20260507032544 90 88 2.0 7.0 0.00 0.00 0.00 74 1008.9
20260507032040 90 128 2.0 7.0 0.00 0.00 0.00 74 1008.8
20260507031551 90 136 3.0 7.0 0.00 0.00 0.00 74 1008.9
20260507031040 90 103 4.0 8.0 0.00 0.00 0.00 74 1008.9
20260507030543 90 119 3.0 9.0 0.00 0.00 0.00 74 1008.8
20260507030050 90 111 4.0 9.0 0.00 0.00 0.00 74 1008.7
20260507025538 90 99 4.0 9.0 0.00 0.00 0.00 74 1008.8
20260507025040 90 128 4.0 9.0 0.00 0.00 0.00 74 1008.6
20260507024555 91 122 4.0 9.0 0.00 0.00 0.00 74 1008.6
20260507024041 91 121 4.0 9.0 0.00 0.00 0.00 74 1008.6
20260507023542 91 117 4.0 9.0 0.00 0.00 0.00 74 1008.5
20260507023049 91 123 3.0 7.0 0.00 0.00 0.00 74 1008.5
20260507022540 91 74 3.0 7.0 0.00 0.00 0.00 74 1008.5
20260507022040 91 109 2.0 8.0 0.00 0.00 0.00 74 1008.3
20260507021550 91 114 3.0 8.0 0.00 0.00 0.00 74 1008.3
20260507021044 91 112 3.0 7.0 0.00 0.00 0.00 74 1008.3
20260507020538 92 101 2.0 7.0 0.00 0.00 0.00 74 1008.2
20260507020048 92 101 3.0 7.0 0.00 0.00 0.00 73 1008.2
20260507015538 92 107 1.0 8.0 0.00 0.00 0.00 73 1008.2
20260507015039 92 112 3.0 8.0 0.00 0.00 0.00 73 1008.2
20260507014552 92 71 3.0 9.0 0.00 0.00 0.00 73 1008.0
20260507014040 92 139 3.0 9.0 0.00 0.00 0.00 72 1007.9
20260507013538 93 110 4.0 8.0 0.00 0.00 0.00 72 1007.9
20260507013103 93 80 3.0 8.0 0.00 0.00 0.00 71 1007.8
20260507012539 93 117 3.0 8.0 0.00 0.00 0.00 71 1007.8
20260507012040 93 101 4.0 8.0 0.00 0.00 0.00 70 1007.8
20260507011548 93 74 4.0 8.0 0.00 0.00 0.00 70 1007.7
20260507011042 94 92 3.0 8.0 0.00 0.00 0.00 70 1007.7
20260507010540 94 83 3.0 8.0 0.00 0.00 0.00 69 1007.6
20260507010053 94 115 3.0 9.0 0.00 0.00 0.00 69 1007.5
20260507005538 94 117 3.0 9.0 0.00 0.00 0.00 69 1007.4
20260507005040 94 119 5.0 9.0 0.00 0.00 0.00 69 1007.4
20260507004547 94 103 3.0 8.0 0.00 0.00 0.00 69 1007.3
20260507004040 94 105 2.0 8.0 0.00 0.00 0.00 69 1007.4
20260507003541 95 94 3.0 8.0 0.00 0.00 0.00 69 1007.3
20260507003051 95 95 4.0 7.0 0.00 0.00 0.00 69 1007.3
20260507002540 95 76 2.0 7.0 0.00 0.00 0.00 70 1007.2
20260507002040 95 128 2.0 7.0 0.00 0.00 0.00 69 1007.2
20260507001608 96 107 3.0 8.0 0.00 0.00 0.00 69 1007.1
20260507001039 96 136 3.0 9.0 0.00 0.00 0.00 69 1007.2
20260507000539 96 103 4.0 9.0 0.00 0.00 0.00 69 1007.2
20260507000056 96 74 5.0 10.0 0.00 0.00 0.00 69 1007.1
20260506235539 96 107 4.0 10.0 0.00 0.00 0.00 70 1007.1
20260506235040 97 112 4.0 10.0 0.00 0.00 0.00 70 1007.1
20260506234600 97 100 4.0 10.0 0.00 0.00 0.00 71 1007.2
20260506234038 97 71 5.0 11.0 0.00 0.00 0.00 71 1007.2
20260506233538 97 90 5.0 11.0 0.00 0.00 0.00 71 1007.2
20260506233047 97 83 6.0 11.0 0.00 0.00 0.00 71 1007.2
20260506232539 97 142 6.0 12.0 0.00 0.00 0.00 71 1007.2
20260506232040 97 84 7.0 12.0 0.00 0.00 0.00 70 1007.1
20260506231554 98 85 4.0 11.0 0.00 0.00 0.00 70 1007.2
20260506231040 98 105 5.0 12.0 0.00 0.00 0.00 70 1007.1
20260506230539 98 105 6.0 12.0 0.00 0.00 0.00 70 1007.1
20260506230054 98 102 7.0 11.0 0.00 0.00 0.00 70 1007.0
20260506225543 98 70 5.0 11.0 0.00 0.00 0.00 69 1007.1
20260506225040 98 74 6.0 11.0 0.00 0.00 0.00 69 1007.0
20260506224604 99 159 4.0 10.0 0.00 0.00 0.00 69 1007.0
20260506224038 99 94 5.0 12.0 0.00 0.00 0.00 69 1007.0
20260506223536 99 34 5.0 12.0 0.00 0.00 0.00 69 1006.9
20260506223059 99 114 7.0 12.0 0.00 0.00 0.00 69 1007.0
20260506222541 99 96 6.0 12.0 0.00 0.00 0.00 69 1006.9
20260506222040 99 94 6.0 12.0 0.00 0.00 0.00 69 1007.0
20260506221552 99 112 4.0 12.0 0.00 0.00 0.00 70 1007.0
20260506221039 99 69 5.0 12.0 0.00 0.00 0.00 70 1007.0
20260506220540 99 63 4.0 12.0 0.00 0.00 0.00 70 1007.1
20260506220104 99 84 6.0 14.0 0.00 0.00 0.00 70 1007.1
20260506215541 99 102 6.0 14.0 0.00 0.00 0.00 69 1007.1
20260506215041 99 58 5.0 10.0 0.00 0.00 0.00 70 1007.1
20260506214549 99 117 6.0 14.0 0.00 0.00 0.00 70 1007.2
20260506214039 99 76 6.0 14.0 0.00 0.00 0.00 70 1007.2
20260506213539 99 102 6.0 12.0 0.00 0.00 0.00 70 1007.3
20260506213049 99 61 6.0 12.0 0.00 0.00 0.00 70 1007.3
20260506212540 99 104 4.0 11.0 0.00 0.00 0.00 70 1007.2
20260506212040 99 97 5.0 13.0 0.00 0.00 0.00 70 1007.3
20260506211552 99 86 5.0 13.0 0.00 0.00 0.00 70 1007.4
20260506211040 100 70 6.0 10.0 0.00 0.00 0.00 70 1007.3
20260506210540 100 136 3.0 10.0 0.00 0.00 0.00 70 1007.4
20260506210050 100 88 2.0 12.0 0.00 0.00 0.00 69 1007.5
20260506205539 99 98 4.0 12.0 0.00 0.00 0.00 68 1007.5
20260506205040 99 113 5.0 12.0 0.00 0.00 0.00 68 1007.5
20260506204546 99 118 4.0 11.0 0.00 0.00 0.00 68 1007.6
20260506204039 99 74 4.0 13.0 0.00 0.00 0.00 67 1007.7
20260506203540 99 101 7.0 13.0 0.00 0.00 0.00 68 1007.8
20260506203049 99 73 6.0 13.0 0.00 0.00 0.00 70 1007.8
20260506202543 99 98 5.0 11.0 0.00 0.00 0.00 70 1007.9
20260506202040 99 68 4.0 12.0 0.00 0.00 0.00 70 1008.0
20260506201546 99 215 4.0 13.0 0.00 0.00 0.00 69 1008.1
20260506201040 99 55 4.0 13.0 0.00 0.00 0.00 70 1008.1
20260506200538 99 56 6.0 13.0 0.00 0.00 0.00 70 1008.2
20260506200045 98 65 4.0 12.0 0.00 0.00 0.00 71 1008.3
20260506195540 99 41 7.0 12.0 0.00 0.00 0.00 70 1008.5
20260506195041 99 74 5.0 11.0 0.00 0.00 0.00 68 1008.5
20260506194554 98 101 6.0 11.0 0.00 0.00 0.00 69 1008.6
20260506194040 98 112 6.0 11.0 0.00 0.00 0.00 69 1008.6
20260506193538 98 123 4.0 11.0 0.00 0.00 0.00 69 1008.8
20260506193052 98 95 5.0 11.0 0.00 0.00 0.00 70 1008.9
20260506192539 98 156 5.0 11.0 0.00 0.00 0.00 71 1009.0
20260506192040 98 107 4.0 13.0 0.00 0.00 0.00 71 1009.2
20260506191547 98 130 5.0 13.0 0.00 0.00 0.00 71 1009.3
20260506191037 97 103 5.0 12.0 0.00 0.00 0.00 73 1009.4
20260506190542 97 101 5.0 12.0 0.00 0.00 0.00 73 1009.4
20260506190052 97 60 5.0 12.0 0.00 0.00 0.00 74 1009.5
20260506185540 98 81 5.0 10.0 0.00 0.00 0.00 73 1009.6
20260506185040 97 110 4.0 11.0 0.00 0.00 0.00 74 1009.7
20260506184550 97 110 5.0 11.0 0.00 0.00 0.00 74 1009.8
20260506184040 97 341 6.0 11.0 0.00 0.00 0.00 74 1009.8
20260506183543 97 82 4.0 11.0 0.00 0.00 0.00 74 1009.8
20260506183101 97 107 5.0 11.0 0.00 0.00 0.00 74 1010.0
20260506182537 97 94 5.0 11.0 0.00 0.00 0.00 74 1010.0
20260506182037 96 63 4.0 11.0 0.00 0.00 0.00 74 1010.0
20260506181608 96 49 3.0 10.0 0.00 0.00 0.00 74 1010.1
20260506181038 96 148 6.0 12.0 0.00 0.00 0.00 75 1010.1
20260506180541 95 310 5.0 12.0 0.00 0.00 0.00 75 1010.2
20260506180054 95 121 3.0 11.0 0.00 0.00 0.00 76 1010.2
20260506175540 96 95 6.0 10.0 0.00 0.00 0.00 75 1010.4
20260506175039 95 51 3.0 10.0 0.00 0.00 0.00 76 1010.5
20260506174548 95 89 3.0 9.0 0.00 0.00 0.00 76 1010.6
20260506174039 95 148 4.0 9.0 0.00 0.00 0.00 75 1010.7
20260506173542 94 112 2.0 10.0 0.00 0.00 0.00 76 1010.7
20260506173116 94 13 4.0 10.0 0.00 0.00 0.00 76 1010.8
20260506172540 94 55 3.0 10.0 0.00 0.00 0.00 77 1010.9
20260506172041 94 69 4.0 9.0 0.00 0.00 0.00 77 1010.9
20260506171553 94 169 2.0 9.0 0.00 0.00 0.00 77 1011.0
20260506171040 94 70 4.0 9.0 0.00 0.00 0.00 76 1011.1
20260506170539 94 0 4.0 10.0 0.00 0.00 0.00 75 1011.2
20260506170057 93 88 1.0 10.0 0.00 0.00 0.00 74 1011.2
20260506165537 93 105 5.0 10.0 0.00 0.00 0.00 76 1011.2
20260506165040 92 187 4.0 8.0 0.00 0.00 0.00 76 1011.3
20260506164550 93 0 3.0 8.0 0.00 0.00 0.00 75 1011.2
20260506164039 92 80 2.0 7.0 0.00 0.00 0.00 77 1011.2